This is the latest recevied weather packets stored in our database for station/object K5DLF-13. If no packets are shown the sender has not sent any weather packets the latest 10 day(s).
| Time | Temp. | Humidity | Pressure | Rain* | Wind** | Luminosity | Snow |
|---|---|---|---|---|---|---|---|
| 1777920300 | 27.78° C | 66% | 1011.5 hPa | 0 mm | - | 1097 W/m² | - |
| 1777920000 | 27.78° C | 65% | 1011.5 hPa | 0 mm | - | 360 W/m² | - |
| 1777919700 | 27.78° C | 64% | 1011.6 hPa | 0 mm | - | 1072 W/m² | - |
| 1777919400 | 27.78° C | 65% | 1011.6 hPa | 0 mm | - | 983 W/m² | - |
| 1777919100 | 27.78° C | 66% | 1011.8 hPa | 0 mm | - | 281 W/m² | - |
| 1777918800 | 27.78° C | 67% | 1011.8 hPa | 0 mm | - | 1063 W/m² | - |
| 1777918500 | 27.22° C | 68% | 1012 hPa | 0 mm | - | 1095 W/m² | - |
| 1777918200 | 27.22° C | 65% | 1012 hPa | 0 mm | - | 320 W/m² | - |
| 1777917900 | 27.22° C | 66% | 1012.1 hPa | 0 mm | - | 267 W/m² | - |
| 1777917600 | 27.22° C | 66% | 1012.1 hPa | 0 mm | - | 1044 W/m² | - |
| 1777917300 | 27.22° C | 65% | 1012.2 hPa | 0 mm | - | 248 W/m² | - |
| 1777917000 | 27.22° C | 66% | 1012.2 hPa | 0 mm | - | 466 W/m² | - |
| 1777916700 | 27.22° C | 66% | 1012.3 hPa | 0 mm | - | 309 W/m² | - |
| 1777916400 | 26.67° C | 67% | 1012.2 hPa | 0 mm | - | 976 W/m² | - |
| 1777916100 | 27.22° C | 64% | 1012.5 hPa | 0 mm | - | 262 W/m² | - |
| 1777915800 | 27.78° C | 64% | 1012.7 hPa | 0 mm | - | 292 W/m² | - |
| 1777915500 | 27.22° C | 66% | 1012.6 hPa | 0 mm | - | 1011 W/m² | - |
| 1777915200 | 27.22° C | 66% | 1012.7 hPa | 0 mm | - | 1048 W/m² | - |
| 1777914900 | 27.22° C | 64% | 1012.7 hPa | 0 mm | - | 338 W/m² | - |
| 1777914600 | 26.67° C | 65% | 1012.8 hPa | 0 mm | - | 360 W/m² | - |
| 1777914300 | 27.22° C | 67% | 1012.7 hPa | 0 mm | - | 974 W/m² | - |
| 1777914000 | 26.67° C | 66% | 1012.8 hPa | 0 mm | - | 951 W/m² | - |
| 1777913700 | 27.22° C | 66% | 1013.1 hPa | 0 mm | - | 199 W/m² | - |
| 1777913400 | 27.22° C | 65% | 1013 hPa | 0 mm | - | 947 W/m² | - |
| 1777913100 | 27.22° C | 65% | 1013.2 hPa | 0 mm | - | 868 W/m² | - |
* Rain latest hour (hover to see other rain measurements)
** Current wind speed in m/s (hover to see current wind gust speed)